Baker, MT

7:41 AM MDT on August 19, 2017 (GMT -0600)
Baker Municipal

Weather History for KBHK - February, 2014

Change the Weather History Date:

Thursday, February 20, 2014

  Actual Average Record
Temperature  
Mean Temperature 23 °F -  
Max Temperature 32 °F 6 °F 55 °F (2017)
Min Temperature 14 °F -4 °F -4 °F (2001)
Degree Days  
Heating Degree Days 42    
Moisture  
Dew Point 16 °F    
Average Humidity 82    
Maximum Humidity 100    
Minimum Humidity 53    
Precipitation  
Precipitation 0.00 in - - ()
Sea Level Pressure  
Sea Level Pressure 29.76 in    
Wind  
Wind Speed 25 mph (WNW)    
Max Wind Speed 38 mph    
Max Gust Speed 52 mph    
Visibility 6 miles    
Events Snow    
Averages and records for this station are not official NWS values.
T = Trace of Precipitation, MM = Missing Value Source: NWS Daily Summary

Daily Weather History Graph

Daily Weather History Graph

Search for Another Location

Airport or City:

Trip Planner

Search our weather history database for the weather conditions in past years. The results will help you decide how hot, cold, wet, or windy it might be!

Date:

Astronomy

Feb. 20, 2014 Rise Set
Actual Time 6:51 AM MST 5:30 PM MST
Civil Twilight 6:21 AM MST 6:00 PM MST
Nautical Twilight 5:46 AM MST 6:35 PM MST
Astronomical Twilight 5:11 AM MST 7:10 PM MST
Moon 11:49 PM MST (2/20) 9:15 AM MST (2/20)
Length of Visible Light 11h 39m
Length of Day
10h 38m
Waning Gibbous, 70% of the Moon is Illuminated
Feb 20
Waning Gibbous
Feb 22
Last Quarter
Mar 1
New
Mar 8
First Quarter
Mar 16
Full

Hourly Weather History & Observations

Time (MST) Temp. Windchill Dew Point Humidity Pressure Visibility Wind Dir Wind Speed Gust Speed Precip Events Conditions
12:51 AM 32.0 °F 18.6 °F 19.9 °F 61% 29.64 in 10.0 mi West 25.3 mph 35.7 mph N/A   Overcast
1:51 AM 32.0 °F 18.1 °F 19.9 °F 61% 29.63 in 10.0 mi West 27.6 mph 51.8 mph N/A   Overcast
2:21 AM 27.0 °F 10.8 °F 21.9 °F 81% 29.60 in 7.0 mi WNW 29.9 mph 40.3 mph 0.00 in Snow Light Snow
2:34 AM 26.1 °F 8.4 °F 19.0 °F 75% 29.61 in 9.0 mi WNW 35.7 mph 46.0 mph 0.00 in   Overcast
2:45 AM 24.1 °F 5.2 °F 19.9 °F 84% 29.61 in 3.0 mi WNW 38.0 mph 51.8 mph 0.00 in Snow Light Snow
2:49 AM 24.8 °F 7.3 °F 19.4 °F 80% 29.61 in 1.8 mi WNW 32.2 mph 51.8 mph 0.00 in Snow Light Snow
2:50 AM 23.0 °F 4.9 °F 21.0 °F 92% 29.68 in 1.5 mi WNW 32.2 mph 51.8 mph 0.00 in Snow Light Snow
3:10 AM 21.9 °F 4.2 °F 19.9 °F 92% 29.62 in 1.0 mi NW 28.8 mph 41.4 mph 0.00 in Snow Light Snow
3:18 AM 19.9 °F 0.2 °F 19.9 °F 100% 29.62 in 0.8 mi WNW 34.5 mph 43.7 mph 0.00 in Snow Light Snow
3:51 AM 18.0 °F -0.2 °F 16.0 °F 92% 29.73 in 1.5 mi NW 25.3 mph 38.0 mph 0.00 in Snow Light Snow
3:56 AM 18.0 °F -1.1 °F 15.1 °F 88% 29.65 in 2.5 mi NW 28.8 mph 42.6 mph 0.00 in Snow Light Snow
4:05 AM 16.0 °F -5.3 °F 14.0 °F 92% 29.66 in 1.5 mi WNW 34.5 mph 47.2 mph 0.00 in Snow Light Snow
4:13 AM 16.0 °F -4.1 °F 12.9 °F 88% 29.66 in 3.0 mi NW 29.9 mph 47.2 mph 0.00 in Snow Light Snow
4:32 AM 15.1 °F -4.4 °F 14.0 °F 95% 29.67 in 2.0 mi WNW 26.5 mph 38.0 mph 0.00 in Snow Light Snow
4:41 AM 15.1 °F -5.3 °F 14.0 °F 95% 29.68 in 1.8 mi WNW 29.9 mph 41.4 mph 0.00 in Snow Light Snow
4:51 AM 15.1 °F -5.3 °F 15.1 °F 100% 29.79 in 0.8 mi WNW 29.9 mph 42.6 mph 0.00 in Snow Light Snow
5:05 AM 15.1 °F -5.0 °F 14.0 °F 95% 29.70 in 1.2 mi NW 28.8 mph 36.8 mph 0.00 in Snow Light Snow
5:35 AM 15.1 °F -4.4 °F 14.0 °F 95% 29.73 in 1.8 mi WNW 26.5 mph 35.7 mph 0.00 in Snow Light Snow
5:48 AM 15.8 °F -3.1 °F 12.2 °F 86% 29.74 in 3.0 mi NW 25.3 mph 41.4 mph 0.00 in Snow Light Snow
5:49 AM 15.1 °F -4.7 °F 12.9 °F 91% 29.83 in 3.0 mi NW 27.6 mph 41.4 mph 0.00 in Snow Light Snow
6:51 AM 14.0 °F -5.1 °F 10.9 °F 88% 29.89 in 7.0 mi NW 24.2 mph 33.4 mph 0.00 in Snow Light Snow
7:24 AM 15.1 °F -4.7 °F 12.0 °F 88% 29.81 in 2.5 mi NW 27.6 mph 35.7 mph 0.00 in Snow Light Snow
7:51 AM 15.1 °F -2.0 °F 12.0 °F 88% 29.92 in 2.0 mi NW 19.6 mph 31.1 mph 0.00 in Snow Light Snow
8:22 AM 15.1 °F -1.1 °F 12.0 °F 88% 29.83 in 3.0 mi NW 17.3 mph 25.3 mph 0.00 in Snow Light Snow
8:30 AM 15.1 °F -2.0 °F 12.0 °F 88% 29.84 in 2.5 mi NW 19.6 mph 29.9 mph 0.00 in Snow Light Snow
8:48 AM 15.8 °F -0.6 °F 12.2 °F 86% 29.84 in 3.0 mi NW 18.4 mph 27.6 mph 0.00 in Snow Light Snow
8:51 AM 16.0 °F -0.4 °F 14.0 °F 92% 29.94 in 3.0 mi NW 18.4 mph 27.6 mph 0.00 in Snow Light Snow
9:51 AM 17.1 °F -0.6 °F 12.9 °F 84% 29.95 in 6.0 mi NW 23.0 mph 27.6 mph 0.00 in Snow Light Snow
10:40 AM 19.9 °F 5.2 °F 14.0 °F 78% 29.85 in 10.0 mi NW 17.3 mph 27.6 mph 0.00 in   Scattered Clouds
10:51 AM - - - N/A% 29.85 in - North - - N/A   Clear
11:51 AM - - - N/A% 29.84 in - North - - N/A   Unknown
12:51 PM 27.0 °F 12.2 °F 12.0 °F 53% 29.89 in 10.0 mi NW 24.2 mph 29.9 mph N/A   Unknown
1:51 PM 30.0 °F 16.3 °F 16.0 °F 56% 29.88 in 10.0 mi WNW 24.2 mph 32.2 mph N/A   Partly Cloudy
2:51 PM 32.0 °F 19.8 °F 19.0 °F 59% 29.88 in 10.0 mi NW 20.7 mph 28.8 mph N/A   Clear
3:51 PM 32.0 °F 20.8 °F 21.0 °F 64% 29.88 in 10.0 mi NW 17.3 mph - N/A   Clear
4:51 PM 28.9 °F 21.1 °F 21.0 °F 72% 29.86 in 10.0 mi NNW 8.1 mph - N/A   Clear
5:51 PM 25.0 °F - 19.0 °F 78% 29.86 in 10.0 mi Calm Calm - N/A   Clear
6:51 PM 23.0 °F 15.8 °F 19.9 °F 88% 29.85 in 10.0 mi South 5.8 mph - N/A   Clear
7:51 PM 23.0 °F 17.0 °F 19.0 °F 85% 29.84 in 10.0 mi SW 4.6 mph - N/A   Clear
8:51 PM 25.0 °F 18.1 °F 17.1 °F 72% 29.81 in 10.0 mi SW 5.8 mph - N/A   Clear
9:51 PM 24.1 °F 17.0 °F 17.1 °F 75% 29.80 in 10.0 mi West 5.8 mph - N/A   Mostly Cloudy
10:51 PM 26.1 °F 15.6 °F 18.0 °F 71% 29.67 in 10.0 mi WSW 11.5 mph - N/A   Partly Cloudy
11:23 PM 28.0 °F 17.5 °F 19.9 °F 72% 29.66 in 10.0 mi West 12.7 mph - N/A   Mostly Cloudy
11:51 PM 28.0 °F 18.1 °F 21.9 °F 78% 29.66 in 10.0 mi West 11.5 mph - N/A   Overcast